Location: Unspecified
(49.2170°N, 0.0000°E)
Time: 23:24:20
(UTC+00:00)

A-11 Canister half - All Passes

Search period start: 18 June 2019 00:00
Search period end: 28 June 2019 00:00
Orbit: 1516 x 1684 km, 47.2° (Epoch: 17 June)

Date Brightness Start Highest point End Pass type
(mag) Time Alt. Az. Time Alt. Az. Time Alt. Az.
18 Jun - 09:02:33 10° SE 09:04:36 11° ESE 09:06:39 10° ESE daylight
18 Jun - 10:58:33 10° SSW 11:07:22 38° SE 11:15:55 10° ENE daylight
18 Jun - 13:01:40 10° WSW 13:11:25 71° SSE 13:20:50 10° E daylight
18 Jun - 15:06:31 10° W 15:16:12 79° S 15:25:32 10° ESE daylight
18 Jun - 17:11:31 10° WNW 17:20:32 51° SSW 17:29:20 10° SE daylight
18 Jun - 19:17:46 10° W 19:23:39 19° SW 19:29:28 10° SSW daylight
19 Jun - 10:35:49 10° SSW 10:44:31 36° SE 10:52:58 10° ENE daylight
19 Jun - 12:38:46 10° WSW 12:48:31 70° SSE 12:57:56 10° E daylight
19 Jun - 14:43:34 10° W 14:53:17 79° S 15:02:39 10° ESE daylight
19 Jun - 16:48:34 10° WNW 16:57:41 53° SSW 17:06:33 10° SE daylight
19 Jun - 18:54:38 10° W 19:00:52 20° SW 19:07:02 10° S daylight
20 Jun - 10:13:04 10° SSW 10:21:40 35° SE 10:30:01 10° E daylight
20 Jun - 12:15:51 10° WSW 12:25:37 68° SSE 12:35:03 10° E daylight
20 Jun - 14:20:37 10° W 14:30:22 80° S 14:39:46 10° E daylight
20 Jun - 16:25:37 10° WNW 16:34:49 55° SSW 16:43:45 10° SE daylight
20 Jun - 18:31:32 10° W 18:38:05 22° SW 18:44:33 10° S daylight
21 Jun - 09:50:21 10° SSW 09:58:49 33° SE 10:07:04 10° E daylight
21 Jun - 11:52:56 10° WSW 12:02:43 67° SSE 12:12:09 10° E daylight
21 Jun - 13:57:40 10° W 14:07:27 80° S 14:16:52 10° E daylight
21 Jun - 16:02:40 10° WNW 16:11:57 57° SSW 16:20:58 10° SE daylight
21 Jun - 18:08:27 10° W 18:15:18 23° SW 18:22:03 10° S daylight
22 Jun - 09:27:39 10° SSW 09:35:59 31° SE 09:44:06 10° E daylight
22 Jun - 11:30:02 10° WSW 11:39:48 65° SSE 11:49:15 10° E daylight
22 Jun - 13:34:43 10° W 13:44:31 81° S 13:53:59 10° E daylight
22 Jun - 15:39:44 10° WNW 15:49:05 59° SSW 15:58:09 10° SE daylight
22 Jun - 17:45:23 10° W 17:52:30 25° SW 17:59:30 10° S daylight
23 Jun - 09:04:58 10° S 09:13:08 30° SE 09:21:07 10° E daylight
23 Jun - 11:07:07 10° SW 11:16:54 63° SSE 11:26:20 10° E daylight
23 Jun - 13:11:45 10° W 13:21:36 81° S 13:31:06 10° E daylight
23 Jun - 15:16:46 10° W 15:26:13 61° SSW 15:35:20 10° SE daylight
23 Jun - 17:22:20 10° W 17:29:42 26° SW 17:36:56 10° S daylight
24 Jun - 08:42:19 10° S 08:50:18 28° SE 08:58:08 10° E daylight
24 Jun - 10:44:14 10° SW 10:54:00 62° SSE 11:03:27 10° E daylight
24 Jun - 12:48:48 10° W 12:58:41 81° S 13:08:12 10° E daylight
24 Jun - 14:53:49 10° W 15:03:20 62° SSW 15:12:30 10° SE daylight
24 Jun - 16:59:18 10° W 17:06:54 28° SW 17:14:21 10° S daylight
25 Jun - 08:19:40 10° S 08:27:29 27° SE 08:35:07 10° E daylight
25 Jun - 10:21:21 10° SW 10:31:06 60° SSE 10:40:32 10° ENE daylight
25 Jun - 12:25:51 10° W 12:35:46 81° S 12:45:18 10° E daylight
25 Jun - 14:30:53 10° W 14:40:27 64° SSW 14:49:40 10° SE daylight
25 Jun - 16:36:17 10° W 16:44:06 30° SW 16:51:44 10° SSE daylight
26 Jun - 07:57:02 10° S 08:04:38 25° SE 08:12:05 10° E daylight
26 Jun - 09:58:29 10° SW 10:08:12 58° SSE 10:17:38 10° ENE daylight
26 Jun - 12:02:53 10° W 12:12:50 80° S 12:22:24 10° E daylight
26 Jun - 14:07:55 10° W 14:17:34 66° SSW 14:26:50 10° ESE daylight
26 Jun - 16:13:16 10° W 16:21:17 31° SW 16:29:06 10° SSE daylight
27 Jun - 07:34:28 10° S 07:41:48 24° SE 07:49:03 10° E daylight
27 Jun - 09:35:36 10° SW 09:45:18 56° SSE 09:54:43 10° ENE daylight
27 Jun - 11:39:56 10° W 11:49:54 80° S 11:59:30 10° E daylight
27 Jun - 13:44:58 10° W 13:54:39 68° SSW 14:03:59 10° ESE daylight
27 Jun - 15:50:16 10° W 15:58:28 33° SW 16:06:27 10° SSE daylight
